Location: Écuvilly
(49.6505°N, 2.9206°E)
Time: 18:13:07
(UTC+00:00)

SL-16 R/B - Pass Details

Date: 17 November 2025
Orbit: 985 x 1006 km, 99.8° (Epoch: 10 December)

Event Time Altitude Azimuth Distance (km) Brightness Sun altitude
Rises 17:57:13 0° 11° (N) 3,748 5.4 -18.3°
Reaches altitude 10° 17:59:58 10° 1° (N) 2,794 4.8 -18.7°
Maximum altitude 18:05:20 31° 303° (WNW) 1,685 4.2 -19.6°
Drops below altitude 10° 18:10:41 10° 243° (WSW) 2,774 5.9 -20.4°
Sets 18:13:25 0° 234° (SW) 3,717 6.5 -20.9°
